Saint James, MN

11:27 AM CDT on July 23, 2016 (GMT -0500)
Saint James Municipal

Weather History for KJYG - October, 2011

Change the Weather History Date:

Monday, October 31, 2011

  Actual Average Record
Temperature  
Mean Temperature 42 °F -  
Max Temperature 59 °F 53 °F 73 °F (1968)
Min Temperature 26 °F 33 °F 15 °F (1993)
Degree Days  
Heating Degree Days 22    
Moisture  
Dew Point 27 °F    
Average Humidity 59    
Maximum Humidity 93    
Minimum Humidity 23    
Precipitation  
Precipitation 0.00 in - - ()
Sea Level Pressure  
Sea Level Pressure 29.99 in    
Wind  
Wind Speed 7 mph (SSW)    
Max Wind Speed 14 mph    
Max Gust Speed -    
Visibility 10 miles    
Events      
Averages and records for this station are not official NWS values.
T = Trace of Precipitation, MM = Missing Value Source: NWS Daily Summary

Daily Weather History Graph

Daily Weather History Graph

Search for Another Location

Airport or City:

Trip Planner

Search our weather history database for the weather conditions in past years. The results will help you decide how hot, cold, wet, or windy it might be!

Date:

Astronomy

Oct. 31, 2011 Rise Set
Actual Time 7:53 AM CDT 6:10 PM CDT
Civil Twilight 7:23 AM CDT 6:39 PM CDT
Nautical Twilight 6:49 AM CDT 7:13 PM CDT
Astronomical Twilight 6:15 AM CDT 7:47 PM CDT
Moon 1:05 PM CDT (10/31) 10:43 PM CDT (10/31)
Length of Visible Light 11h 16m
Length of Day
10h 17m
Waxing Crescent, 30% of the Moon is Illuminated
Oct 31
Waxing Crescent
Nov 2
First Quarter
Nov 10
Full
Nov 18
Last Quarter
Nov 25
New

Hourly Weather History & Observations

Time (CDT) Temp. Windchill Dew Point Humidity Pressure Visibility Wind Dir Wind Speed Gust Speed Precip Events Conditions
12:14 AM 39.2 °F 32.0 °F 33.8 °F 81% 30.00 in 10.0 mi WNW 11.5 mph - N/A   Clear
12:35 AM 37.4 °F 30.3 °F 32.0 °F 81% 30.00 in 10.0 mi WNW 10.4 mph - N/A   Clear
12:55 AM 35.6 °F 29.9 °F 30.2 °F 81% 30.01 in 10.0 mi WNW 6.9 mph - N/A   Clear
1:15 AM 33.8 °F 27.7 °F 30.2 °F 87% 30.01 in 10.0 mi West 6.9 mph - N/A   Clear
1:54 AM 33.8 °F 29.6 °F 30.2 °F 87% 30.02 in 10.0 mi West 4.6 mph - N/A   Clear
2:15 AM 32.0 °F 26.4 °F 28.4 °F 87% 30.02 in 10.0 mi West 5.8 mph - N/A   Clear
2:35 AM 32.0 °F 26.4 °F 28.4 °F 87% 30.02 in 10.0 mi West 5.8 mph - N/A   Clear
2:55 AM 30.2 °F 24.3 °F 26.6 °F 86% 30.02 in 10.0 mi WSW 5.8 mph - N/A   Clear
3:15 AM 30.2 °F 23.4 °F 26.6 °F 86% 30.02 in 10.0 mi WSW 6.9 mph - N/A   Clear
3:34 AM 28.4 °F 21.2 °F 26.6 °F 93% 30.03 in 10.0 mi WSW 6.9 mph - N/A   Clear
3:55 AM 30.2 °F 25.4 °F 26.6 °F 86% 30.02 in 10.0 mi West 4.6 mph - N/A   Clear
4:15 AM 30.2 °F 25.4 °F 26.6 °F 86% 30.02 in 10.0 mi West 4.6 mph - N/A   Clear
4:34 AM 30.2 °F 22.6 °F 26.6 °F 86% 30.03 in 10.0 mi West 8.1 mph - N/A   Clear
5:15 AM 30.2 °F 22.6 °F 26.6 °F 86% 30.03 in 10.0 mi WSW 8.1 mph - N/A   Clear
5:34 AM 30.2 °F 24.3 °F 26.6 °F 86% 30.03 in 10.0 mi WSW 5.8 mph - N/A   Clear
5:55 AM 28.4 °F 22.2 °F 24.8 °F 86% 30.04 in 10.0 mi West 5.8 mph - N/A   Clear
6:15 AM 28.4 °F 22.2 °F 24.8 °F 86% 30.04 in 10.0 mi WSW 5.8 mph - N/A   Clear
6:55 AM 28.4 °F 23.3 °F 24.8 °F 86% 30.04 in 10.0 mi WSW 4.6 mph - N/A   Clear
7:14 AM 28.4 °F 24.6 °F 24.8 °F 86% 30.03 in 10.0 mi South 3.5 mph - N/A   Clear
7:35 AM 26.6 °F 20.0 °F 23.0 °F 86% 30.03 in 10.0 mi SSW 5.8 mph - N/A   Clear
7:54 AM 26.6 °F 20.0 °F 23.0 °F 86% 30.03 in 10.0 mi WSW 5.8 mph - N/A   Clear
8:15 AM 26.6 °F 22.6 °F 23.0 °F 86% 30.03 in 10.0 mi SSW 3.5 mph - N/A   Clear
8:35 AM 28.4 °F 21.2 °F 24.8 °F 86% 30.04 in 10.0 mi SW 6.9 mph - N/A   Clear
8:55 AM 30.2 °F 24.3 °F 26.6 °F 86% 30.04 in 10.0 mi SW 5.8 mph - N/A   Clear
9:14 AM 33.8 °F 27.7 °F 28.4 °F 81% 30.05 in 10.0 mi SW 6.9 mph - N/A   Clear
9:35 AM 35.6 °F 31.7 °F 30.2 °F 81% 30.04 in 10.0 mi SW 4.6 mph - N/A   Clear
9:55 AM 37.4 °F 33.8 °F 30.2 °F 75% 30.04 in 10.0 mi SW 4.6 mph - N/A   Clear
10:15 AM 39.2 °F - 32.0 °F 75% 30.04 in 10.0 mi Calm Calm - N/A   Clear
10:34 AM 42.8 °F 41.1 °F 32.0 °F 66% 30.03 in 10.0 mi SW 3.5 mph - N/A   Clear
10:55 AM 44.6 °F 40.2 °F 32.0 °F 61% 30.03 in 10.0 mi SSW 8.1 mph - N/A   Clear
11:15 AM 46.4 °F 43.5 °F 32.0 °F 57% 30.02 in 10.0 mi SSW 5.8 mph - N/A   Clear
11:34 AM 46.4 °F 42.9 °F 32.0 °F 57% 30.02 in 10.0 mi SW 6.9 mph - N/A   Clear
11:55 AM 48.2 °F - 32.0 °F 54% 30.02 in 10.0 mi SW 4.6 mph - N/A   Clear
12:15 PM 50.0 °F - 30.2 °F 47% 30.02 in 10.0 mi SSW 3.5 mph - N/A   Clear
12:35 PM 51.8 °F - 30.2 °F 44% 30.01 in 10.0 mi SSW 4.6 mph - N/A   Clear
12:55 PM 51.8 °F - 30.2 °F 44% 30.00 in 10.0 mi SSW 4.6 mph - N/A   Clear
1:15 PM 53.6 °F - 30.2 °F 41% 30.00 in 10.0 mi SW 8.1 mph - N/A   Clear
1:34 PM 53.6 °F - 28.4 °F 38% 29.99 in 10.0 mi SSW 6.9 mph - N/A   Clear
1:55 PM 55.4 °F - 28.4 °F 36% 29.97 in 10.0 mi South 5.8 mph - N/A   Clear
2:15 PM 57.2 °F - 26.6 °F 31% 29.97 in 10.0 mi SSW 5.8 mph - N/A   Clear
2:35 PM 57.2 °F - 24.8 °F 29% 29.96 in 10.0 mi SSW 6.9 mph - N/A   Clear
2:55 PM 57.2 °F - 24.8 °F 29% 29.96 in 10.0 mi South 4.6 mph - N/A   Clear
3:15 PM 59.0 °F - 24.8 °F 27% 29.95 in 10.0 mi South 6.9 mph - N/A   Clear
3:34 PM 59.0 °F - 23.0 °F 25% 29.94 in 10.0 mi South 9.2 mph - N/A   Clear
3:55 PM 59.0 °F - 21.2 °F 23% 29.94 in 10.0 mi South 10.4 mph - N/A   Clear
4:15 PM 59.0 °F - 21.2 °F 23% 29.93 in 10.0 mi SSE 9.2 mph - N/A   Clear
4:34 PM 59.0 °F - 21.2 °F 23% 29.92 in 10.0 mi SSE 12.7 mph - N/A   Clear
5:14 PM 59.0 °F - 21.2 °F 23% 29.92 in 10.0 mi South 11.5 mph - N/A   Clear
5:35 PM 57.2 °F - 21.2 °F 25% 29.92 in 10.0 mi SSE 13.8 mph - N/A   Clear
5:55 PM 57.2 °F - 23.0 °F 27% 29.92 in 10.0 mi SSE 9.2 mph - N/A   Clear
6:14 PM 55.4 °F - 23.0 °F 29% 29.92 in 10.0 mi SSE 9.2 mph - N/A   Clear
6:35 PM 53.6 °F - 23.0 °F 30% 29.92 in 10.0 mi SSE 9.2 mph - N/A   Clear
6:54 PM 51.8 °F - 24.8 °F 35% 29.93 in 10.0 mi SE 8.1 mph - N/A   Clear
7:15 PM 50.0 °F - 24.8 °F 37% 29.92 in 10.0 mi SE 9.2 mph - N/A   Clear
7:35 PM 50.0 °F - 24.8 °F 37% 29.92 in 10.0 mi SE 10.4 mph - N/A   Clear
7:55 PM 48.2 °F - 24.8 °F 40% 29.93 in 10.0 mi SE 10.4 mph - N/A   Clear
8:15 PM 48.2 °F - 26.6 °F 43% 29.93 in 10.0 mi SE 10.4 mph - N/A   Clear
8:35 PM 48.2 °F - 26.6 °F 43% 29.92 in 10.0 mi SSE 10.4 mph - N/A   Clear
8:55 PM 48.2 °F - 26.6 °F 43% 29.92 in 10.0 mi SSE 11.5 mph - N/A   Clear
9:15 PM 48.2 °F - 26.6 °F 43% 29.92 in 10.0 mi SSE 11.5 mph - N/A   Clear
9:35 PM 48.2 °F - 26.6 °F 43% 29.91 in 10.0 mi SSE 12.7 mph - N/A   Clear
9:55 PM 48.2 °F - 26.6 °F 43% 29.91 in 10.0 mi SSE 16.1 mph - N/A   Clear
10:15 PM 48.2 °F - 26.6 °F 43% 29.91 in 10.0 mi SSE 16.1 mph - N/A   Scattered Clouds
10:34 PM 48.2 °F - 26.6 °F 43% 29.91 in 10.0 mi SSE 16.1 mph - N/A   Scattered Clouds
10:55 PM 50.0 °F - 26.6 °F 40% 29.90 in 10.0 mi SSE 18.4 mph 26.5 mph N/A   Scattered Clouds
11:14 PM 48.2 °F - 26.6 °F 43% 29.90 in 10.0 mi SSE 16.1 mph - N/A   Mostly Cloudy
11:35 PM 48.2 °F - 26.6 °F 43% 29.89 in 10.0 mi SSE 16.1 mph 21.9 mph N/A   Scattered Clouds
11:55 PM 48.2 °F - 26.6 °F 43% 29.89 in 10.0 mi SSE 13.8 mph - N/A   Clear